Starlink 35144

operational
NORAD ID: 65538 Int'l Des: 2025-200 Owner: SPXS Country: US Constellation: starlink
LEOCIRCULARRETROGRADE

Starlink 35144について

説明を読み込み中...

リアルタイム位置

3D地球を読み込み中...

次回通過

高度履歴

Altitude vs Time

uPlot chart will show altitude changes over time

軌道要素

1 65538U 25200U 25303.19952195 .00063824 00000-0 16244-2 0 9992
2 65538 97.6067 10.8230 0001497 86.0149 274.1267 15.39354974 9476
Epoch: Oct 30, 2025 • Age: 25 hours

現在のステータス

高度 459.7 km
速度 7.64 km/s
衛星直下点 76.74°N, 93.63°E
打ち上げ日 Sep 6, 2025
運用期間 0.1 years
タイプ internet

技術仕様

分類 Payload
質量 575.00 kg
乾燥質量 530.00 kg
総質量 575.00 kg
長さ 0.30 m
直径 4.10 m
スパン 29.00 m
形状 Box + pan
製造者 SPXS
バスタイプ Starlink V2MO
フェーズステータス In Orbit
所有者/国 SPXS/US

大規模コンステレーション

Loading constellations...